Regional Weather Roundup
Issued by NWS

Home | Current Version | Previous Version | Graphics & Text | Print | Product List | Glossary On
Versions: 1 2 3 4 5 6 7 8 9 10 11 12 13 14 15 16 17 18 19 20 21 22 23 24 25 26 27 28 29 30 31 32 33 34 35 36 37 38 39 40 41 42 43 44 45 46 47 48 49 50
000
ASUS45 KBOI 252210
RWRID

IDAHO REGIONAL WEATHER ROUNDUP
NATIONAL WEATHER SERVICE BOISE ID
400 PM MDT TUE JUL 25 2017

NOTE: "FAIR" INDICATES FEW OR NO CLOUDS BELOW 12000 FEET
WITH NO SIGNIFICANT WEATHER AND/OR OBSTRUCTIONS TO VISIBILITY

IDZ012-014-252300-
SOUTHWEST IDAHO


CITY           SKY/WX    TMP DP  RH WIND       PRES   REMARKS
BOISE          SUNNY     92  50  23 NW12      29.96F
CALDWELL       SUNNY     89  52  28 NW5       29.95F
MOUNTAIN HOME  MOSUNNY   96  51  22 CALM      29.94F HX  93
$$

IDZ016-017-252300-
SOUTHCENTRAL IDAHO


CITY           SKY/WX    TMP DP  RH WIND       PRES   REMARKS
BURLEY         PTSUNNY   83  50  31 CALM      30.05S
JEROME         MOSUNNY   89  50  26 VRB5      30.04F
TWIN FALLS     MOSUNNY   88  54  31 E9        30.04F
$$

IDZ019>023-252300-
SOUTHEAST IDAHO


CITY           SKY/WX    TMP DP  RH WIND       PRES   REMARKS
IDAHO FALLS    CLOUDY    77  54  44 S9        30.14S
POCATELLO      CLOUDY    80  53  39 E3        30.11F
REXBURG        PTSUNNY   78  53  41 S12       30.14S
$$

IDZ006-010-011-018-031-032-252300-
CENTRAL IDAHO MOUNTAINS


CITY           SKY/WX    TMP DP  RH WIND       PRES   REMARKS
MCCALL         MOSUNNY   84  43  23 SW9       30.10F
HAILEY         MOSUNNY   79  55  44 SW6       30.16F
STANLEY          N/A     80  41  24 VRB5      30.21F
SALMON         NOT AVBL
CHALLIS        PTSUNNY   82  46  28 VRB5      30.11F
$$

IDZ002-004-006-007-026-252300-
NORTHERN IDAHO


CITY           SKY/WX    TMP DP  RH WIND       PRES   REMARKS
LEWISTON       SUNNY     94  36  13 VRB5      29.93F
LOWELL           N/A     97  39  13 VRB5      29.89F HX  92
COEUR D`ALENE  SUNNY     89  41  18 SW12G17   30.00F
MULLAN PASS    SUNNY     74  35  24 N7        30.20F
$$



USA.gov is the U.S. government's official web portal to all federal, state and local government web resources and services.